QPF
0.00 0.01 0.01 0.01 0.01 0.01 0.01 0.01 0.01 0.01 0.01 0.02 0.04 0.03 0.02 0.02 0.03 0.02 0.02 0.02 0.02 0.02 0.01 0.01 0.01 0.01 0.02 0.02 0.02 0.02 0.02 0.02 0.03 0.04 0.03 0.04 0.03 0.03 0.04 0.06 0.09 0.10 0.11 0.10
0.01 0.01 0.01 0.01 0.01 0.01 0.01 0.01 0.01 0.02 0.02 0.02 0.03 0.03 0.03 0.03 0.03 0.02 0.02 0.02 0.02 0.02 0.01 0.01 0.01 0.01 0.01 0.02 0.02 0.02 0.03 0.03 0.03 0.04 0.04 0.03 0.03 0.03 0.03 0.05 0.07 0.10 0.11 0.12
0.01 0.01 0.01 0.01 0.01 0.01 0.01 0.01 0.01 0.03 0.02 0.02 0.02 0.03 0.03 0.03 0.03 0.02 0.02 0.02 0.02 0.02 0.02 0.01 0.01 0.01 0.01 0.01 0.02 0.02 0.02 0.03 0.03 0.03 0.04 0.05 0.04 0.03 0.04 0.04 0.05 0.08 0.10 0.11
0.00 0.00 0.00 0.01 0.01 0.02 0.02 0.01 0.01 0.03 0.04 0.03 0.03 0.03 0.03 0.03 0.02 0.01 0.01 0.02 0.02 0.02 0.01 0.01 0.01 0.01 0.01 0.01 0.02 0.02 0.02 0.02 0.03 0.03 0.04 0.05 0.06 0.04 0.03 0.04 0.05 0.06 0.07 0.09
0.01 0.01 0.00 0.00 0.01 0.01 0.01 0.01 0.02 0.02 0.04 0.03 0.02 0.03 0.02 0.02 0.02 0.01 0.01 0.01 0.01 0.01 0.01 0.01 0.01 0.02 0.02 0.01 0.01 0.02 0.02 0.02 0.02 0.03 0.03 0.04 0.05 0.05 0.04 0.03 0.04 0.05 0.06 0.07
0.01 0.01 0.01 0.00 0.00 0.00 0.00 0.01 0.02 0.02 0.03 0.04 0.02 0.01 0.01 0.01 0.01 0.01 0.01 0.01 0.01 0.01 0.01 0.01 0.01 0.01 0.01 0.01 0.02 0.02 0.02 0.03 0.02 0.03 0.03 0.03 0.04 0.04 0.05 0.04 0.04 0.04 0.04 0.05
0.01 0.01 0.00 0.00 0.00 0.00 0.01 0.01 0.02 0.02 0.03 0.02 0.01 0.01 0.01 0.01 0.01 0.01 0.01 0.01 0.01 0.01 0.01 0.01 0.01 0.01 0.01 0.01 0.02 0.02 0.02 0.03 0.02 0.02 0.03 0.03 0.03 0.03 0.04 0.04 0.04 0.04 0.04 0.04
0.01 0.01 0.00 0.00 0.00 0.01 0.01 0.02 0.02 0.01 0.01 0.01 0.01 0.01 0.02 0.01 0.01 0.01 0.01 0.01 0.01 0.01 0.01 0.01 0.01 0.01 0.02 0.01 0.01 0.02 0.02 0.03 0.03 0.03 0.02 0.03 0.03 0.03 0.03 0.04 0.04 0.03 0.03 0.03
0.01 0.01 0.00 0.00 0.00 0.00 0.01 0.01 0.01 0.02 0.01 0.01 0.01 0.01 0.01 0.01 0.01 0.01 0.01 0.01 0.01 0.01 0.01 0.01 0.01 0.01 0.01 0.01 0.01 0.01 0.02 0.02 0.03 0.03 0.03 0.03 0.03 0.03 0.03 0.03 0.03 0.03 0.03 0.03
0.01 0.01 0.00 0.00 0.00 0.00 0.00 0.00 0.01 0.02 0.02 0.02 0.02 0.01 0.01 0.01 0.02 0.02 0.01 0.01 0.01 0.01 0.01 0.01 0.01 0.01 0.01 0.01 0.01 0.01 0.01 0.01 0.02 0.02 0.03 0.04 0.04 0.04 0.03 0.03 0.03 0.03 0.03 0.03
0.00 0.01 0.00 0.00 0.00 0.00 0.00 0.00 0.01 0.02 0.01 0.01 0.01 0.01 0.02 0.02 0.02 0.02 0.02 0.02 0.01 0.01 0.01 0.01 0.01 0.01 0.01 0.01 0.01 0.01 0.01 0.01 0.01 0.02 0.03 0.04 0.04 0.04 0.04 0.04 0.04 0.04 0.04 0.04
0.00 0.00 0.00 0.00 0.00 0.00 0.00 0.00 0.01 0.02 0.02 0.01 0.01 0.02 0.02 0.02 0.02 0.02 0.02 0.02 0.02 0.02 0.01 0.01 0.01 0.01 0.01 0.01 0.01 0.01 0.01 0.01 0.02 0.02 0.03 0.03 0.04 0.04 0.04 0.04 0.04 0.05 0.05 0.04
0.01 0.01 0.01 0.01 0.01 0.00 0.00 0.01 0.01 0.03 0.03 0.02 0.02 0.01 0.01 0.01 0.01 0.01 0.01 0.02 0.02 0.02 0.01 0.01 0.00 0.00 0.00 0.01 0.01 0.02 0.01 0.01 0.01 0.02 0.03 0.02 0.03 0.04 0.05 0.05 0.05 0.06 0.06 0.05
0.03 0.03 0.01 0.01 0.01 0.01 0.01 0.00 0.00 0.01 0.02 0.02 0.02 0.02 0.02 0.01 0.01 0.01 0.01 0.01 0.01 0.01 0.01 0.00 0.00 0.00 0.00 0.00 0.01 0.01 0.01 0.02 0.01 0.02 0.03 0.03 0.03 0.03 0.04 0.05 0.06 0.06 0.06 0.07
0.03 0.02 0.01 0.01 0.01 0.01 0.02 0.01 0.00 0.01 0.01 0.01 0.01 0.03 0.03 0.02 0.02 0.01 0.01 0.01 0.01 0.01 0.00 0.00 0.00 0.00 0.00 0.00 0.00 0.01 0.01 0.01 0.01 0.02 0.02 0.03 0.03 0.03 0.03 0.05 0.06 0.07 0.06 0.06
0.02 0.02 0.01 0.01 0.01 0.01 0.01 0.01 0.00 0.00 0.00 0.01 0.01 0.01 0.01 0.01 0.02 0.01 0.01 0.01 0.01 0.01 0.00 0.00 0.00 0.00 0.00 0.00 0.00 0.00 0.01 0.01 0.01 0.01 0.02 0.03 0.03 0.03 0.03 0.05 0.06 0.07 0.06 0.05
0.02 0.03 0.03 0.02 0.01 0.01 0.01 0.01 0.01 0.00 0.00 0.01 0.01 0.01 0.01 0.01 0.01 0.01 0.01 0.01 0.00 0.00 0.00 0.00 0.00 0.00 0.00 0.00 0.00 0.01 0.01 0.01 0.01 0.02 0.02 0.03 0.03 0.03 0.04 0.04 0.05 0.07 0.07 0.05
0.02 0.03 0.04 0.03 0.02 0.02 0.01 0.01 0.01 0.01 0.01 0.01 0.01 0.01 0.01 0.01 0.01 0.01 0.01 0.01 0.00 0.00 0.00 0.00 0.00 0.00 0.00 0.00 0.00 0.00 0.01 0.01 0.02 0.02 0.03 0.03 0.03 0.03 0.03 0.04 0.05 0.06 0.07 0.06
0.01 0.03 0.05 0.04 0.03 0.01 0.01 0.01 0.01 0.01 0.01 0.01 0.01 0.01 0.00 0.00 0.01 0.01 0.01 0.01 0.01 0.01 0.00 0.00 0.01 0.00 0.00 0.00 0.00 0.00 0.01 0.01 0.01 0.02 0.03 0.04 0.04 0.04 0.03 0.04 0.04 0.05 0.06 0.06
0.01 0.03 0.04 0.04 0.03 0.01 0.00 0.00 0.01 0.01 0.01 0.01 0.01 0.01 0.01 0.01 0.01 0.01 0.00 0.01 0.01 0.01 0.00 0.01 0.01 0.01 0.00 0.00 0.00 0.01 0.01 0.01 0.01 0.02 0.03 0.03 0.04 0.04 0.04 0.03 0.04 0.04 0.05 0.05
0.02 0.03 0.04 0.03 0.03 0.01 0.01 0.00 0.00 0.01 0.01 0.01 0.01 0.01 0.01 0.01 0.01 0.01 0.01 0.01 0.01 0.01 0.01 0.01 0.01 0.01 0.01 0.01 0.01 0.01 0.01 0.01 0.02 0.02 0.03 0.03 0.03 0.03 0.04 0.04 0.04 0.04 0.04 0.04
0.01 0.02 0.02 0.02 0.03 0.02 0.00 0.01 0.01 0.01 0.01 0.01 0.01 0.01 0.01 0.01 0.01 0.01 0.01 0.01 0.01 0.01 0.01 0.01 0.01 0.01 0.01 0.01 0.02 0.02 0.02 0.02 0.02 0.02 0.03 0.03 0.04 0.04 0.03 0.04 0.04 0.04 0.04 0.04
0.01 0.01 0.01 0.02 0.02 0.01 0.01 0.01 0.01 0.01 0.01 0.01 0.01 0.01 0.01 0.01 0.01 0.01 0.01 0.01 0.01 0.02 0.02 0.02 0.01 0.01 0.02 0.02 0.02 0.02 0.02 0.03 0.03 0.03 0.02 0.03 0.04 0.04 0.03 0.03 0.03 0.03 0.03 0.03
0.01 0.01 0.01 0.02 0.01 0.01 0.01 0.01 0.01 0.01 0.01 0.01 0.01 0.01 0.01 0.01 0.01 0.01 0.01 0.01 0.01 0.02 0.02 0.02 0.02 0.02 0.02 0.02 0.02 0.02 0.02 0.03 0.03 0.03 0.03 0.03 0.03 0.03 0.04 0.03 0.02 0.02 0.03 0.03
0.01 0.01 0.02 0.02 0.01 0.01 0.01 0.01 0.01 0.01 0.01 0.01 0.01 0.01 0.01 0.01 0.01 0.01 0.01 0.01 0.01 0.02 0.02 0.02 0.02 0.02 0.02 0.02 0.03 0.03 0.03 0.03 0.03 0.03 0.03 0.04 0.03 0.03 0.03 0.04 0.03 0.03 0.03 0.03
0.01 0.01 0.02 0.01 0.01 0.01 0.01 0.01 0.01 0.01 0.01 0.01 0.01 0.01 0.01 0.01 0.01 0.01 0.01 0.02 0.02 0.02 0.02 0.02 0.02 0.02 0.02 0.03 0.03 0.03 0.03 0.03 0.03 0.03 0.03 0.04 0.04 0.04 0.04 0.04 0.03 0.04 0.04 0.04
MSLP
1018.92 1018.36 1017.77 1017.20 1016.69 1016.24 1015.86 1015.52 1015.19 1014.86 1014.52 1014.20 1013.93 1013.76 1013.75 1013.92 1014.27 1014.77 1015.33 1015.88 1016.32 1016.57 1016.58 1016.32 1015.83 1015.17 1014.42 1013.65 1012.95 1012.37 1011.94 1011.67 1011.54 1011.54 1011.65 1011.85 1012.14 1012.52 1012.99 1013.54 1014.16 1014.83 1015.53 1016.22
1019.48 1018.97 1018.45 1017.97 1017.56 1017.22 1016.95 1016.71 1016.48 1016.22 1015.96 1015.70 1015.49 1015.39 1015.46 1015.71 1016.16 1016.76 1017.43 1018.07 1018.57 1018.85 1018.84 1018.52 1017.93 1017.13 1016.21 1015.25 1014.34 1013.55 1012.90 1012.42 1012.08 1011.87 1011.76 1011.76 1011.86 1012.07 1012.39 1012.83 1013.39 1014.04 1014.76 1015.51
1020.12 1019.69 1019.28 1018.92 1018.65 1018.45 1018.31 1018.19 1018.06 1017.89 1017.68 1017.47 1017.29 1017.22 1017.31 1017.60 1018.08 1018.71 1019.42 1020.09 1020.62 1020.90 1020.88 1020.53 1019.88 1019.00 1017.97 1016.90 1015.87 1014.94 1014.14 1013.48 1012.96 1012.55 1012.23 1012.00 1011.87 1011.86 1011.99 1012.27 1012.70 1013.28 1013.97 1014.73
1020.81 1020.50 1020.22 1020.02 1019.90 1019.86 1019.87 1019.88 1019.85 1019.75 1019.59 1019.38 1019.19 1019.09 1019.13 1019.37 1019.81 1020.40 1021.07 1021.72 1022.23 1022.50 1022.47 1022.11 1021.46 1020.57 1019.54 1018.46 1017.39 1016.41 1015.54 1014.78 1014.12 1013.54 1013.02 1012.57 1012.20 1011.94 1011.84 1011.91 1012.17 1012.61 1013.21 1013.93
1021.55 1021.36 1021.23 1021.18 1021.23 1021.36 1021.52 1021.65 1021.70 1021.66 1021.50 1021.27 1021.02 1020.83 1020.78 1020.91 1021.23 1021.71 1022.28 1022.85 1023.30 1023.54 1023.51 1023.17 1022.57 1021.75 1020.79 1019.77 1018.77 1017.83 1016.97 1016.19 1015.45 1014.75 1014.07 1013.42 1012.82 1012.31 1011.95 1011.78 1011.83 1012.09 1012.55 1013.17
1022.30 1022.22 1022.22 1022.32 1022.53 1022.80 1023.09 1023.32 1023.45 1023.43 1023.26 1022.98 1022.65 1022.34 1022.15 1022.13 1022.29 1022.62 1023.05 1023.50 1023.86 1024.06 1024.02 1023.72 1023.20 1022.48 1021.65 1020.78 1019.91 1019.08 1018.30 1017.55 1016.81 1016.04 1015.25 1014.43 1013.63 1012.90 1012.30 1011.88 1011.69 1011.74 1012.03 1012.51
1023.00 1023.00 1023.10 1023.33 1023.65 1024.04 1024.43 1024.73 1024.90 1024.89 1024.70 1024.37 1023.96 1023.55 1023.22 1023.04 1023.04 1023.20 1023.48 1023.79 1024.05 1024.18 1024.13 1023.88 1023.43 1022.84 1022.16 1021.45 1020.74 1020.06 1019.41 1018.74 1018.03 1017.26 1016.40 1015.48 1014.53 1013.60 1012.79 1012.14 1011.72 1011.56 1011.65 1011.96
1023.58 1023.63 1023.80 1024.09 1024.49 1024.95 1025.39 1025.74 1025.93 1025.93 1025.73 1025.37 1024.91 1024.43 1024.01 1023.72 1023.58 1023.60 1023.73 1023.92 1024.07 1024.13 1024.04 1023.80 1023.42 1022.93 1022.38 1021.81 1021.26 1020.73 1020.20 1019.64 1019.00 1018.25 1017.39 1016.41 1015.36 1014.30 1013.32 1012.49 1011.87 1011.50 1011.39 1011.53
1024.02 1024.07 1024.25 1024.57 1024.99 1025.46 1025.92 1026.28 1026.48 1026.49 1026.31 1025.96 1025.51 1025.02 1024.58 1024.25 1024.05 1023.99 1024.01 1024.08 1024.13 1024.10 1023.96 1023.69 1023.32 1022.87 1022.40 1021.93 1021.49 1021.07 1020.65 1020.18 1019.61 1018.92 1018.08 1017.09 1016.01 1014.89 1013.80 1012.83 1012.04 1011.50 1011.21 1011.18
1024.29 1024.32 1024.48 1024.77 1025.16 1025.60 1026.03 1026.38 1026.58 1026.62 1026.48 1026.20 1025.82 1025.41 1025.04 1024.75 1024.57 1024.48 1024.45 1024.43 1024.38 1024.25 1024.01 1023.67 1023.25 1022.78 1022.31 1021.87 1021.47 1021.10 1020.74 1020.34 1019.84 1019.21 1018.42 1017.47 1016.40 1015.26 1014.13 1013.08 1012.18 1011.49 1011.05 1010.86
1024.46 1024.46 1024.58 1024.81 1025.13 1025.50 1025.87 1026.17 1026.37 1026.43 1026.36 1026.19 1025.95 1025.69 1025.47 1025.30 1025.19 1025.14 1025.10 1025.03 1024.89 1024.65 1024.29 1023.82 1023.29 1022.73 1022.19 1021.69 1021.26 1020.89 1020.53 1020.16 1019.70 1019.13 1018.40 1017.52 1016.50 1015.39 1014.26 1013.18 1012.22 1011.43 1010.85 1010.51
1024.63 1024.61 1024.69 1024.85 1025.08 1025.36 1025.64 1025.88 1026.05 1026.14 1026.15 1026.10 1026.03 1025.96 1025.92 1025.91 1025.93 1025.95 1025.93 1025.82 1025.59 1025.23 1024.72 1024.11 1023.42 1022.72 1022.06 1021.46 1020.94 1020.50 1020.12 1019.73 1019.29 1018.76 1018.09 1017.28 1016.33 1015.29 1014.20 1013.12 1012.13 1011.27 1010.58 1010.11
1024.95 1024.94 1024.99 1025.09 1025.24 1025.41 1025.58 1025.73 1025.86 1025.95 1026.02 1026.09 1026.17 1026.28 1026.42 1026.58 1026.72 1026.82 1026.81 1026.66 1026.35 1025.86 1025.21 1024.44 1023.59 1022.73 1021.92 1021.19 1020.56 1020.03 1019.57 1019.15 1018.70 1018.19 1017.57 1016.82 1015.95 1014.98 1013.95 1012.90 1011.90 1010.99 1010.21 1009.62
1025.54 1025.59 1025.64 1025.70 1025.76 1025.83 1025.88 1025.93 1025.98 1026.04 1026.13 1026.27 1026.46 1026.71 1026.98 1027.26 1027.49 1027.63 1027.62 1027.42 1027.02 1026.41 1025.61 1024.69 1023.69 1022.69 1021.74 1020.88 1020.14 1019.51 1018.98 1018.49 1018.02 1017.50 1016.90 1016.20 1015.40 1014.49 1013.52 1012.51 1011.52 1010.58 1009.74 1009.04
1026.47 1026.60 1026.69 1026.74 1026.74 1026.70 1026.64 1026.57 1026.52 1026.52 1026.58 1026.73 1026.95 1027.25 1027.59 1027.91 1028.16 1028.28 1028.22 1027.94 1027.44 1026.71 1025.80 1024.75 1023.64 1022.53 1021.48 1020.52 1019.69 1018.97 1018.35 1017.80 1017.27 1016.72 1016.12 1015.44 1014.67 1013.82 1012.90 1011.93 1010.96 1010.01 1009.13 1008.36
1027.71 1027.95 1028.11 1028.16 1028.12 1028.01 1027.84 1027.65 1027.48 1027.38 1027.36 1027.44 1027.63 1027.89 1028.19 1028.47 1028.65 1028.69 1028.53 1028.15 1027.53 1026.70 1025.69 1024.56 1023.38 1022.21 1021.09 1020.08 1019.17 1018.38 1017.68 1017.04 1016.44 1015.83 1015.18 1014.48 1013.73 1012.91 1012.03 1011.10 1010.17 1009.24 1008.35 1007.54
1029.13 1029.49 1029.72 1029.80 1029.74 1029.57 1029.31 1029.01 1028.72 1028.50 1028.37 1028.35 1028.43 1028.58 1028.77 1028.91 1028.96 1028.85 1028.55 1028.02 1027.28 1026.35 1025.26 1024.08 1022.87 1021.68 1020.55 1019.50 1018.55 1017.69 1016.90 1016.16 1015.45 1014.74 1014.01 1013.26 1012.48 1011.66 1010.82 1009.94 1009.06 1008.18 1007.33 1006.55
1030.53 1030.99 1031.28 1031.40 1031.33 1031.12 1030.80 1030.42 1030.04 1029.71 1029.46 1029.31 1029.25 1029.25 1029.26 1029.22 1029.07 1028.77 1028.29 1027.61 1026.74 1025.71 1024.57 1023.36 1022.15 1020.96 1019.82 1018.75 1017.75 1016.81 1015.92 1015.05 1014.19 1013.35 1012.50 1011.66 1010.82 1009.99 1009.17 1008.36 1007.56 1006.77 1006.01 1005.30
1031.67 1032.19 1032.52 1032.66 1032.60 1032.38 1032.03 1031.61 1031.18 1030.78 1030.44 1030.17 1029.97 1029.81 1029.63 1029.39 1029.03 1028.53 1027.85 1027.01 1026.01 1024.89 1023.70 1022.47 1021.25 1020.06 1018.91 1017.81 1016.74 1015.70 1014.66 1013.63 1012.59 1011.57 1010.57 1009.61 1008.70 1007.84 1007.05 1006.31 1005.61 1004.96 1004.34 1003.77
1032.37 1032.89 1033.23 1033.37 1033.32 1033.11 1032.77 1032.36 1031.92 1031.50 1031.12 1030.79 1030.49 1030.19 1029.85 1029.43 1028.88 1028.18 1027.32 1026.32 1025.21 1024.00 1022.76 1021.50 1020.26 1019.04 1017.86 1016.68 1015.51 1014.32 1013.11 1011.87 1010.63 1009.40 1008.22 1007.12 1006.12 1005.24 1004.48 1003.83 1003.27 1002.78 1002.35 1001.97
1032.53 1033.00 1033.30 1033.43 1033.39 1033.20 1032.91 1032.55 1032.16 1031.78 1031.42 1031.08 1030.73 1030.35 1029.90 1029.34 1028.64 1027.78 1026.78 1025.65 1024.43 1023.14 1021.83 1020.53 1019.24 1017.97 1016.70 1015.42 1014.10 1012.73 1011.31 1009.84 1008.37 1006.93 1005.56 1004.32 1003.23 1002.33 1001.61 1001.06 1000.65 1000.35 1000.13 999.97
1032.17 1032.55 1032.78 1032.87 1032.83 1032.68 1032.45 1032.17 1031.88 1031.59 1031.30 1031.01 1030.68 1030.29 1029.78 1029.14 1028.35 1027.39 1026.28 1025.05 1023.74 1022.38 1021.00 1019.62 1018.26 1016.90 1015.52 1014.09 1012.60 1011.03 1009.38 1007.68 1005.98 1004.33 1002.80 1001.42 1000.27 999.35 998.68 998.24 997.98 997.88 997.88 997.94
1031.44 1031.69 1031.83 1031.87 1031.82 1031.71 1031.55 1031.37 1031.19 1031.02 1030.84 1030.64 1030.38 1030.02 1029.53 1028.86 1028.03 1027.01 1025.84 1024.55 1023.18 1021.75 1020.30 1018.85 1017.39 1015.92 1014.40 1012.81 1011.13 1009.36 1007.50 1005.60 1003.70 1001.88 1000.20 998.73 997.53 996.62 996.01 995.67 995.56 995.63 995.83 996.11
1030.54 1030.65 1030.69 1030.67 1030.61 1030.52 1030.43 1030.35 1030.29 1030.24 1030.19 1030.09 1029.92 1029.63 1029.17 1028.53 1027.70 1026.68 1025.49 1024.17 1022.75 1021.27 1019.76 1018.23 1016.68 1015.09 1013.44 1011.70 1009.85 1007.91 1005.89 1003.82 1001.78 999.84 998.08 996.57 995.35 994.46 993.92 993.67 993.69 993.90 994.26 994.70
1029.68 1029.66 1029.61 1029.54 1029.46 1029.40 1029.36 1029.36 1029.40 1029.45 1029.50 1029.50 1029.41 1029.19 1028.80 1028.20 1027.40 1026.39 1025.21 1023.89 1022.46 1020.95 1019.40 1017.80 1016.17 1014.48 1012.72 1010.86 1008.90 1006.84 1004.71 1002.57 1000.46 998.48 996.70 995.19 994.00 993.16 992.68 992.51 992.62 992.94 993.40 993.95
1029.02 1028.92 1028.80 1028.69 1028.60 1028.55 1028.55 1028.60 1028.70 1028.83 1028.94 1029.01 1028.98 1028.81 1028.46 1027.91 1027.15 1026.18 1025.03 1023.73 1022.30 1020.79 1019.21 1017.57 1015.89 1014.13 1012.30 1010.38 1008.37 1006.28 1004.13 1001.98 999.91 997.97 996.24 994.79 993.67 992.90 992.47 992.37 992.53 992.90 993.42 994.02
Thickness
5504 5494 5488 5489 5491 5494 5492 5492 5491 5494 5495 5490 5487 5490 5494 5494 5493 5494 5495 5497 5500 5504 5507 5511 5516 5520 5522 5524 5526 5529 5532 5534 5536 5538 5540 5541 5542 5545 5548 5550 5553 5555 5557 5559
5482 5478 5482 5484 5485 5484 5483 5479 5476 5480 5480 5478 5473 5476 5482 5482 5483 5483 5483 5484 5487 5490 5493 5498 5501 5505 5508 5511 5514 5517 5519 5523 5526 5528 5530 5531 5531 5533 5536 5538 5540 5543 5546 5548
5470 5469 5475 5474 5470 5471 5473 5467 5466 5465 5464 5463 5461 5465 5469 5470 5470 5471 5471 5472 5473 5476 5479 5483 5487 5490 5494 5498 5501 5505 5507 5510 5513 5515 5516 5518 5518 5519 5521 5525 5528 5531 5534 5537
5457 5461 5463 5460 5457 5456 5459 5460 5460 5458 5450 5444 5448 5445 5457 5456 5457 5457 5456 5456 5458 5460 5464 5468 5472 5475 5479 5484 5488 5491 5494 5497 5499 5501 5503 5506 5508 5508 5510 5513 5516 5518 5521 5524
5445 5448 5448 5447 5446 5444 5444 5448 5446 5446 5438 5429 5430 5426 5440 5441 5443 5445 5443 5443 5446 5448 5451 5454 5458 5462 5466 5470 5474 5477 5480 5483 5485 5488 5490 5493 5495 5497 5498 5500 5502 5505 5508 5511
5435 5437 5436 5436 5436 5435 5433 5432 5429 5421 5416 5414 5420 5416 5425 5425 5431 5434 5431 5431 5433 5436 5439 5442 5445 5448 5452 5456 5459 5462 5465 5469 5471 5473 5476 5479 5482 5483 5485 5487 5489 5492 5495 5498
5421 5425 5425 5425 5424 5423 5417 5409 5400 5397 5391 5402 5411 5407 5412 5417 5419 5419 5418 5418 5420 5422 5425 5427 5431 5434 5438 5441 5445 5447 5451 5454 5457 5459 5462 5465 5468 5470 5473 5475 5477 5480 5482 5486
5404 5407 5412 5411 5409 5404 5400 5397 5388 5384 5383 5390 5395 5396 5403 5405 5406 5406 5404 5404 5406 5409 5411 5413 5416 5419 5423 5426 5429 5433 5436 5439 5442 5445 5448 5452 5454 5457 5460 5462 5465 5468 5471 5474
5392 5397 5402 5403 5401 5398 5391 5382 5382 5370 5363 5363 5378 5381 5390 5397 5395 5393 5392 5393 5393 5395 5398 5400 5403 5405 5408 5411 5415 5418 5421 5425 5428 5431 5434 5437 5440 5443 5446 5448 5452 5455 5459 5462
5389 5382 5388 5390 5392 5388 5383 5375 5362 5359 5358 5361 5368 5367 5381 5385 5384 5383 5381 5379 5380 5382 5384 5386 5389 5391 5394 5397 5401 5404 5407 5411 5414 5417 5420 5424 5426 5429 5432 5435 5438 5442 5446 5449
5380 5371 5369 5372 5368 5369 5367 5363 5355 5346 5345 5349 5350 5370 5378 5376 5373 5370 5369 5367 5366 5368 5370 5373 5375 5377 5380 5383 5387 5390 5393 5397 5400 5404 5407 5410 5413 5416 5418 5421 5425 5429 5433 5436
5371 5358 5352 5358 5363 5362 5357 5353 5345 5342 5336 5330 5333 5357 5367 5359 5358 5356 5354 5354 5354 5354 5357 5360 5362 5364 5367 5370 5373 5376 5379 5382 5386 5390 5394 5397 5400 5403 5405 5409 5412 5415 5419 5424
5360 5349 5346 5355 5352 5346 5344 5341 5333 5330 5328 5323 5328 5350 5353 5347 5345 5343 5341 5340 5340 5342 5345 5348 5350 5353 5355 5357 5360 5363 5366 5369 5373 5377 5380 5384 5387 5390 5393 5396 5399 5403 5407 5411
5360 5343 5344 5352 5353 5343 5335 5334 5327 5322 5319 5317 5327 5341 5344 5341 5336 5334 5330 5329 5329 5331 5334 5336 5337 5340 5342 5345 5347 5350 5353 5356 5359 5363 5368 5371 5374 5378 5382 5385 5388 5391 5396 5400
5348 5338 5332 5337 5341 5333 5331 5331 5324 5319 5320 5321 5330 5328 5339 5333 5326 5323 5320 5320 5320 5321 5323 5325 5325 5327 5329 5332 5335 5338 5341 5344 5347 5350 5355 5358 5362 5366 5369 5373 5377 5381 5385 5389
5331 5326 5323 5327 5332 5325 5328 5329 5323 5320 5318 5316 5321 5325 5328 5320 5313 5311 5311 5311 5311 5311 5312 5313 5314 5315 5317 5320 5323 5327 5329 5332 5335 5338 5342 5346 5349 5353 5357 5362 5366 5369 5372 5376
5319 5316 5315 5319 5316 5317 5318 5323 5319 5315 5311 5312 5316 5322 5315 5309 5308 5304 5303 5303 5302 5301 5302 5302 5302 5303 5305 5307 5311 5314 5317 5319 5322 5326 5330 5335 5338 5342 5346 5350 5353 5356 5359 5362
5312 5307 5304 5305 5300 5302 5329 5316 5314 5312 5307 5302 5304 5304 5304 5302 5299 5294 5293 5291 5290 5290 5290 5290 5291 5293 5295 5297 5299 5302 5305 5308 5310 5314 5318 5322 5326 5330 5333 5336 5340 5343 5346 5350
5309 5304 5298 5293 5289 5301 5315 5310 5300 5299 5302 5296 5294 5293 5291 5288 5287 5286 5285 5282 5281 5280 5279 5279 5280 5282 5284 5286 5288 5291 5294 5296 5299 5302 5306 5310 5314 5318 5321 5324 5329 5332 5335 5338
5295 5294 5292 5285 5286 5293 5314 5302 5293 5292 5293 5294 5287 5283 5279 5278 5280 5284 5278 5274 5272 5270 5270 5269 5270 5271 5273 5275 5277 5280 5282 5284 5287 5290 5294 5298 5302 5306 5309 5313 5317 5320 5323 5326
5287 5282 5281 5279 5278 5290 5295 5286 5286 5285 5295 5287 5280 5275 5270 5268 5271 5272 5268 5265 5263 5261 5260 5260 5260 5260 5262 5264 5266 5268 5271 5273 5277 5279 5283 5288 5292 5295 5298 5302 5305 5308 5310 5313
5285 5278 5274 5272 5274 5288 5283 5277 5277 5280 5277 5272 5269 5266 5262 5260 5259 5258 5257 5256 5253 5251 5251 5250 5249 5251 5252 5253 5254 5258 5260 5263 5266 5269 5273 5277 5280 5284 5288 5289 5293 5295 5298 5300
5277 5280 5279 5279 5286 5280 5270 5270 5268 5265 5262 5261 5258 5255 5252 5250 5249 5248 5247 5245 5243 5242 5241 5241 5240 5241 5242 5242 5244 5246 5250 5253 5255 5259 5262 5266 5269 5272 5275 5278 5281 5283 5285 5287
5268 5263 5265 5263 5267 5265 5260 5258 5256 5253 5252 5251 5249 5247 5244 5241 5239 5237 5236 5235 5234 5233 5232 5232 5231 5231 5232 5233 5234 5236 5239 5242 5245 5248 5252 5255 5258 5260 5263 5267 5269 5271 5273 5275
5265 5256 5257 5257 5258 5256 5257 5252 5250 5247 5244 5242 5240 5237 5235 5232 5230 5227 5226 5225 5224 5225 5224 5223 5222 5222 5222 5223 5225 5227 5229 5231 5234 5237 5240 5243 5246 5248 5251 5254 5257 5260 5263 5266
5255 5252 5253 5261 5257 5251 5252 5247 5243 5239 5236 5234 5231 5228 5226 5223 5221 5219 5217 5216 5215 5215 5214 5214 5213 5214 5214 5214 5216 5218 5220 5222 5224 5227 5229 5231 5234 5236 5239 5241 5244 5248 5251 5254